Content
SEND FEEDBACK

Daily
Averages
Monthly
Summary
United States of America

ROCK HILL, NEW YORK


Home > North America > United States > New York
Elevation: 1260 feet     Latitude: 41 35N     Longitude: 074 37W

WEATHER
 
SELECT A DAY
Number of Records: 443,161;   Date Range: 1/1/95 - 7/20/14
 
SHARE

PRINT THIS DATA

[ ← Previous Day ]
WEATHER ALMANAC - MAY 15, 2014
[ Next Day → ]
[ °C ]   °F
Weather ElementAverageHighLow
Temperature62.6 °F71.6 °F (2:15 pm)57.2 °F (12:35 am)
Dewpoint61 °F66.2 °F (4:35 pm)55.4 °F (12:55 am)
Humidity94.9 %100 % (12:35 am)73 % (2:15 pm)
Barometer30.17 in30.27 in (12:35 am)30.09 in (11:35 pm)
Wind Speed11.3 mph19.6 mph (3:35 pm)
Wind Gust28.8 mph (3:35 pm)
Weather ElementAverage
Visibility6.9 mi
Wind DirectionSE (131 °)

Weather ElementTotal
Precipitation0.04 in
Heating Degree Days0.6 (Base 65)
Growing Degree Days14.4 (Base 50)
Averaged from 69 records on May 15, 2014
WEATHER CONDITIONS BREAKOUT
WIND DIRECTION BREAKOUT
WEATHER BY HOUR - MAY 15, 2014
[ °C ]   °F
Local TimeTemperatureDewpointHumidityBarometerVisibilityWind DirectionWind SpeedGust SpeedPrecipitationEventsConditions
12:35 AM57.2 °F57.2 °F100 %30.27 in3.0 miSE (130°)6.9 mphOvercast
12:55 AM57.2 °F55.4 °F94 %30.27 in3.0 miESE (120°)5.8 mphOvercast
1:15 AM57.2 °F55.4 °F94 %30.26 in1.8 miESE (120°)4.6 mphOvercast
1:35 AM57.2 °F55.4 °F94 %30.26 in2.5 miESE (110°)5.8 mphOvercast
1:55 AM57.2 °F55.4 °F94 %30.25 in1.2 miEast (100°)5.8 mphOvercast
2:15 AM57.2 °F57.2 °F100 %30.24 in2.0 miEast (100°)6.9 mphOvercast
2:35 AM57.2 °F55.4 °F94 %30.23 in2.5 miEast (100°)6.9 mphOvercast
2:55 AM57.2 °F57.2 °F100 %30.22 in3.0 miEast (90°)9.2 mphOvercast
3:15 AM57.2 °F57.2 °F100 %30.22 in5.0 miEast (100°)8.1 mphOvercast
3:35 AM57.2 °F57.2 °F100 %30.21 in5.0 miEast (90°)5.8 mph0.01 inOvercast
3:55 AM57.2 °F57.2 °F100 %30.22 in3.0 miEast (90°)3.5 mph0.01 inOvercast
4:15 AM57.2 °F55.4 °F94 %30.22 in6.0 miEast (100°)5.8 mphOvercast
4:35 AM57.2 °F57.2 °F100 %30.21 in3.0 miEast (100°)8.1 mphOvercast
4:55 AM57.2 °F55.4 °F94 %30.20 in4.0 miESE (110°)6.9 mphOvercast
5:15 AM57.2 °F57.2 °F100 %30.21 in5.0 miESE (110°)5.8 mphOvercast
5:35 AM57.2 °F57.2 °F100 %30.21 in3.0 miEast (100°)3.5 mphOvercast
5:55 AM57.2 °F57.2 °F100 %30.21 in4.0 miESE (110°)5.8 mphOvercast
6:15 AM57.2 °F57.2 °F100 %30.21 in4.0 miESE (110°)4.6 mphOvercast
6:35 AM59.0 °F59.0 °F100 %30.21 in3.0 miESE (120°)6.9 mphOvercast
6:55 AM57.2 °F57.2 °F100 %30.21 in0.5 miESE (110°)4.6 mphOvercast
7:15 AM57.2 °F57.2 °F100 %30.21 in0.5 miEast (80°)5.8 mphOvercast
7:35 AM60.8 °F59.0 °F94 %30.21 in1.2 miEast (100°)6.9 mphOvercast
7:55 AM59.0 °F59.0 °F100 %30.21 in0.5 miESE (110°)5.8 mphOvercast
8:15 AM57.2 °F57.2 °F100 %30.21 in0.2 miESE (110°)8.1 mphOvercast
8:35 AM60.8 °F60.8 °F100 %30.21 in0.2 miSE (130°)9.2 mphOvercast
8:55 AM60.8 °F60.8 °F100 %30.21 in0.8 miESE (120°)8.1 mphOvercast
9:15 AM60.8 °F60.8 °F100 %30.21 in3.0 miSE (130°)9.2 mphOvercast
9:35 AM62.6 °F62.6 °F100 %30.20 in10.0 miSE (140°)13.8 mph17.3 mphOvercast
9:55 AM62.6 °F62.6 °F100 %30.20 in10.0 miSSE (150°)12.7 mph18.4 mphOvercast
10:15 AM62.6 °F60.8 °F94 %30.20 in10.0 miSE (140°)11.5 mphOvercast
10:35 AM64.4 °F62.6 °F94 %30.20 in10.0 miSE (140°)10.4 mphOvercast
10:55 AM64.4 °F64.4 °F100 %30.19 in10.0 miSE (140°)13.8 mphOvercast
11:15 AM64.4 °F64.4 °F100 %30.19 in10.0 miSSE (150°)13.8 mph21.9 mphOvercast
11:35 AM64.4 °F64.4 °F100 %30.20 in10.0 miSSE (160°)16.1 mph20.7 mphOvercast
11:55 AM64.4 °F62.6 °F94 %30.20 in9.0 miSSE (160°)13.8 mphOvercast
12:15 PM64.4 °F62.6 °F94 %30.20 in10.0 miSSE (160°)13.8 mphOvercast
12:35 PM64.4 °F62.6 °F94 %30.20 in10.0 miSSE (160°)11.5 mphOvercast
12:55 PM66.2 °F62.6 °F88 %30.19 in10.0 miSouth (170°)15.0 mph21.9 mphOvercast
1:15 PM68.0 °F62.6 °F83 %30.18 in10.0 miSouth (170°)13.8 mph20.7 mphOvercast
1:35 PM69.8 °F62.6 °F78 %30.17 in10.0 miSouth (170°)12.7 mph20.7 mphOvercast
1:55 PM69.8 °F62.6 °F78 %30.17 in10.0 miSouth (170°)17.3 mph21.9 mphOvercast
2:15 PM71.6 °F62.6 °F73 %30.16 in10.0 miSE (140°)15.0 mph19.6 mphOvercast
3:15 PM71.6 °F64.4 °F78 %30.14 in10.0 miSSE (160°)17.3 mph25.3 mphOvercast
3:35 PM71.6 °F64.4 °F78 %30.14 in10.0 miSSE (150°)19.6 mph28.8 mphMostly Cloudy
3:55 PM69.8 °F64.4 °F83 %30.13 in10.0 miSE (140°)13.8 mph23.0 mphMostly Cloudy
4:15 PM68.0 °F64.4 °F88 %30.13 in6.0 miSE (140°)12.7 mph16.1 mphOvercast
4:35 PM68.0 °F66.2 °F94 %30.12 in4.0 miSE (130°)12.7 mph0.01 inOvercast
4:55 PM66.2 °F66.2 °F100 %30.12 in7.0 miSE (130°)12.7 mph16.1 mph0.01 inOvercast
5:15 PM68.0 °F66.2 °F94 %30.12 in8.0 miSSE (150°)18.4 mphOvercast
5:35 PM64.4 °F64.4 °F100 %30.12 in9.0 miSE (140°)18.4 mph26.5 mphOvercast
5:55 PM66.2 °F64.4 °F94 %30.12 in9.0 miSE (140°)17.3 mph23.0 mphOvercast
6:15 PM64.4 °F64.4 °F100 %30.12 in10.0 miSE (140°)18.4 mph25.3 mphOvercast
6:35 PM66.2 °F64.4 °F94 %30.13 in10.0 miSSE (150°)15.0 mph20.7 mphOvercast
6:55 PM64.4 °F64.4 °F100 %30.12 in10.0 miSE (130°)17.3 mph20.7 mphOvercast
7:15 PM64.4 °F64.4 °F100 %30.12 in10.0 miSE (140°)11.5 mph18.4 mphMostly Cloudy
7:35 PM64.4 °F64.4 °F100 %30.12 in10.0 miSE (140°)13.8 mph18.4 mphOvercast
7:55 PM64.4 °F62.6 °F94 %30.12 in10.0 miSE (130°)12.7 mphOvercast
8:15 PM64.4 °F62.6 °F94 %30.11 in10.0 miSE (140°)16.1 mph19.6 mphOvercast
8:35 PM64.4 °F62.6 °F94 %30.12 in10.0 miSE (140°)13.8 mph18.4 mphOvercast
8:55 PM64.4 °F62.6 °F94 %30.11 in10.0 miSE (140°)15.0 mph19.6 mphOvercast
9:15 PM64.4 °F62.6 °F94 %30.12 in10.0 miSE (140°)12.7 mph21.9 mphOvercast
9:35 PM64.4 °F62.6 °F94 %30.11 in10.0 miSE (140°)13.8 mphOvercast
9:55 PM64.4 °F62.6 °F94 %30.12 in10.0 miSE (140°)15.0 mph20.7 mphOvercast
10:15 PM64.4 °F62.6 °F94 %30.11 in10.0 miSSE (150°)13.8 mph23.0 mphOvercast
10:35 PM64.4 °F62.6 °F94 %30.11 in10.0 miSSE (150°)13.8 mph18.4 mphOvercast
10:55 PM64.4 °F62.6 °F94 %30.11 in10.0 miSE (140°)11.5 mphOvercast
11:15 PM64.4 °F62.6 °F94 %30.10 in10.0 miSSE (150°)15.0 mphOvercast
11:35 PM64.4 °F62.6 °F94 %30.09 in10.0 miSE (140°)12.7 mphOvercast
11:55 PM64.4 °F62.6 °F94 %30.09 in10.0 miSE (140°)12.7 mphOvercast
Hourly data recorded from KMSV, located miles away from Rock Hill, New York







STORIES FROM OUR PARTNERS